Tracking 31027 objects as of 19-Jul-2025
HD Live streaming from Space Station
objects crossing your sky now

STARLINK-1227

Track STARLINK-1227 now!
10-day predictions
STARLINK-1227 is classified as:


NORAD ID: 45230
Int'l Code: 2020-012BE
Perigee: 553.5 km
Apogee: 555.2 km
Inclination: 53.1 °
Period: 95.6 minutes
Semi major axis: 6925 km
RCS: Unknown
Launch date: February 17, 2020
Source: United States (US)
Launch site: AIR FORCE EASTERN TEST RANGE (AFETR)
Your satellite tracking list
ICEYE-X27
Track 1 satellite(s)




NASA's NSSDC Master Catalog

Two Line Element Set (TLE):
1 45230U 20012BE  25199.75653019  .00000064  00000-0  23184-4 0  9993
2 45230  53.0560 336.7850 0001219  92.2101 267.9027 15.06403932300150
Source of the keplerian elements: AFSPC